Weather Roundup
Issued by NWS Chicago, IL

Home | Current Version | Previous Version | Graphics & Text | Print | Product List | Glossary On
Versions: 1 2 3 4 5 6 7 8 9 10 11 12 13 14 15 16 17 18 19 20 21 22 23 24 25 26 27 28 29 30 31 32 33 34 35 36 37 38 39 40 41 42 43 44 45 46 47 48 49 50
000
NZUS59 KLOT 300308
HRRLOT

CHICAGO AREA WEATHER ROUNDUP
NATIONAL WEATHER SERVICE CHICAGO/ROMEOVILLE IL
1000 PM CDT SAT AUG 29 2015

NOTE: "FAIR" INDICATES FEW OR NO CLOUDS BELOW 12,000 FEET WITH NO
SIGNIFICANT WEATHER AND/OR OBSTRUCTIONS TO VISIBILITY.

* THESE STATIONS ARE NOT UNDER NWS QUALITY CONTROL. THEY ALSO MAY NOT
  REPORT WEATHER SUCH AS PRECIPITATION OR FOG.

ILZ005-006-012>014-019>023-300400-
NORTHEAST ILLINOIS

CITY           SKY/WX    TMP DP  RH WIND       PRES   REMARKS
OHARE          CLOUDY    67  65  93 N3        30.03S FOG
MIDWAY         LGT RAIN  70  66  87 N7        30.03S FOG
AURORA         CLOUDY    68  66  93 NE5       30.05R FOG
LANSING*       CLOUDY    69  65  90 N6        30.03S
JOLIET*        CLOUDY    70  68  95 N3        30.03S FOG
WAUKEGAN       CLOUDY    63  63 100 N5        30.03S FOG
DUPAGE AIRPORT CLOUDY    67  65  93 CALM      30.04R FOG
WHEELING       CLOUDY    67  65  93 N5        30.05R FOG
KANKAKEE*      CLOUDY    70  70  99 CALM      30.03S FOG
MORRIS*        CLOUDY    69  67  95 CALM      30.02S FOG
LEWIS AIRPORT* CLOUDY    68  67  98 NE6       30.04R FOG
NORTHERLY IS     N/A     65  63  93 NW5         N/A
$$

WIZ051-052-058>065-066-070>072-300400-
SOUTHEAST WISCONSIN

CITY           SKY/WX    TMP DP  RH WIND       PRES   REMARKS
MILWAUKEE      DRZL/FOG  63  62  97 N6        30.05R VSB 3/4
KENOSHA*       FOG       63  62  97 N5        30.05R VSB 1/2
RACINE*        FOG       63  61  93 N8        30.06S VSB 1
BURLINGTON     CLOUDY    61  61  99 CALM      30.05F FOG
WAUKESHA       CLOUDY    61  59  94 CALM      30.07F FOG
WEST BEND      CLOUDY    63  59  88 CALM      30.07S FOG
$$

INZ001>003-010>013-019-020-300400-
NORTHWEST INDIANA

CITY           SKY/WX    TMP DP  RH WIND       PRES   REMARKS
GARY*          CLOUDY    70  64  83 CALM      30.05R
MICHIGAN CITY* NOT AVBL
RENSSELAER*    NOT AVBL
VALPARAISO     CLOUDY    70  67  90 S5        30.04S
$$

LMZ740>746-300400-
SOUTHERN LAKE MICHIGAN

STATION/POSITION TIME  SKY/WX   TEMP WIND        PRES    VSBY
                                AIR  DIR/SP/G
                 (UTC)          (F)  (DEG/KT/KT) (MB)    (MI)
HARRISON CRIB    0200            62  350/  7/  8   N/A
BURNHAM HARBOR   0300            65  310/  2/  9   N/A
CALUMET HARBOR   NOT AVBL
BURNS HARBOR     0200            70  250/  5/  7 1016.9R
MICHIGAN CITY    0200            71  140/  7/  8   N/A
$$

ABBREVIATIONS USED IN REMARKS
   TC - TEMPERATURE IN CELSIUS
  WCI - WIND CHILL INDEX
   HX - HEAT INDEX
  VSB - VISIBILITY
$$


USA.gov is the U.S. government's official web portal to all federal, state and local government web resources and services.